Hourly Data Report for October 12, 2013

All times are specified in Local Standard Time (LST). Add 1 hour to adjust for Daylight Saving Time where and when it is observed.

GJOA HAVEN A
NUNAVUT

68°38'08.000" N
95°51'01.000" W
46.90 m
2302337
71597
YHK

Download Data

Hourly Data (October 2013)
Hourly Data Report for October 12, 2013
Temp Definition
°C
Dew Point Temp Definition
°C
Rel Hum Definition
%
Wind Dir Definition
10's deg

Wind Spd Definition
km/h
Visibility Definition
km
Stn Press Definition
kPa
Hmdx Definition


Wind Chill Definition


Weather Definition


TIME
00:00 Legend Double Dagger 0.2 0.1 99 20 32 1.6 99.46     LegendNANA
01:00 Legend Double Dagger 0.2 0.1 99 21 24 16.1 99.48     LegendNANA
02:00 Legend Double Dagger 0.3 0.0 98 22 24 16.1 99.47     LegendNANA
03:00 Legend Double Dagger 0.2 0.1 99 22 22 1.2 99.50     LegendNANA
04:00 Legend Double Dagger 0.1 0.1 100 22 26 2.0 99.51     LegendNANA
05:00 Legend Double Dagger 0.0 0.0 100 23 24 1.0 99.51   -6 LegendNANA
06:00 Legend Double Dagger -0.1 -0.1 100 24 22 1.6 99.54   -6 LegendNANA
07:00 Legend Double Dagger -0.1 -0.1 100 23 24 1.0 99.58   -6 LegendNANA
08:00 Legend Double Dagger -0.1 -0.1 100 24 21 0.4 99.64   -6 LegendNANA
09:00 Legend Double Dagger -0.6 -0.6 100 26 32 4.8 99.68   -7 LegendNANA
10:00 Legend Double Dagger -0.5 -0.6 99 26 24 4.8 99.75   -6 LegendNANA
11:00 Legend Double Dagger -1.3 -1.7 97 27 33 6.4 99.79   -8 LegendNANA
12:00 Legend Double Dagger -2.0 -2.4 97 26 32 8.1 99.84   -9 LegendNANA
13:00 Legend Double Dagger -1.7 -2.4 95 26 30 16.1 99.88   -9 LegendNANA
14:00 Legend Double Dagger -1.8 -2.8 93 27 32 16.1 99.93   -9 LegendNANA
15:00 Legend Double Dagger -1.9 -3.0 92 27 30 16.1 99.99   -9 LegendNANA
16:00 Legend Double Dagger -2.1 -2.9 94 27 26 16.1 100.01   -9 LegendNANA
17:00 Legend Double Dagger -2.1 -2.9 94 28 24 16.1 100.06   -8 LegendNANA
18:00 Legend Double Dagger -2.2 -3.2 93 27 24 16.1 100.10   -9 LegendNANA
19:00 Legend Double Dagger -2.2 -3.0 95 27 21 16.1 100.10   -8 LegendNANA
20:00 Legend Double Dagger -2.1 -2.8 95 26 21 16.1 100.10   -8 LegendNANA
21:00 Legend Double Dagger -2.0 -2.8 95 26 24 16.1 100.09   -8 LegendNANA
22:00 Legend Double Dagger -1.9 -2.5 96 26 18 16.1 100.13   -7 LegendNANA
23:00 Legend Double Dagger -1.7 -2.1 97 26 15 16.1 100.15   -7 LegendNANA

Notes on Data Quality.

Legend

  • E = Estimated
  • M = Missing
  • NA = Not Available
  • ‡ = Partner data that is not subject to review by the National Climate Archives
Date modified: